Weather Roundup
Issued by NWS Chicago, IL

Home | Current Version | Previous Version | Graphics & Text | Print | Product List | Glossary On
Versions: 1 2 3 4 5 6 7 8 9 10 11 12 13 14 15 16 17 18 19 20 21 22 23 24 25 26 27 28 29 30 31 32 33 34 35 36 37 38 39 40 41 42 43 44 45 46 47 48 49 50
000
NZUS59 KLOT 171903
HRRLOT

CHICAGO AREA WEATHER ROUNDUP
NATIONAL WEATHER SERVICE CHICAGO/ROMEOVILLE IL
100 PM CST TUE JAN 17 2017

NOTE: "FAIR" INDICATES FEW OR NO CLOUDS BELOW 12,000 FEET WITH NO
SIGNIFICANT WEATHER AND/OR OBSTRUCTIONS TO VISIBILITY.

* THESE STATIONS ARE NOT UNDER NWS QUALITY CONTROL. THEY ALSO MAY NOT
  REPORT WEATHER SUCH AS PRECIPITATION OR FOG.

ILZ005-006-012>014-019>023-172000-
NORTHEAST ILLINOIS

CITY           SKY/WX    TMP DP  RH WIND       PRES   REMARKS
OHARE          CLOUDY    38  36  92 W9        29.85S
MIDWAY         CLOUDY    37  36  96 W10       29.86S
AURORA         CLOUDY    38  36  92 W14       29.88
LANSING*       CLOUDY    38  38 100 W13       29.88R
JOLIET*        CLOUDY    38  38  99 W8        29.90R FOG
WAUKEGAN       CLOUDY    38  35  89 W8        29.83S
DUPAGE AIRPORT CLOUDY    38  35  89 W10       29.85S
WHEELING       CLOUDY    39  35  86 W7        29.86R
MORRIS*        CLOUDY    37  36  98 W10G17    29.89S FOG
LEWIS AIRPORT* CLOUDY    37  37 100 W12       29.88R
NORTHERLY ISL    N/A     39  36  89 W10         N/A
$$

WIZ051-052-058>065-066-070>072-172000-
SOUTHEAST WISCONSIN

CITY           SKY/WX    TMP DP  RH WIND       PRES   REMARKS
MILWAUKEE      CLOUDY    39  36  89 NW10      29.82F
KENOSHA*       CLOUDY    37  35  92 W12       29.83R FOG
RACINE*          N/A    N/A N/A N/A MISG      29.84S
WAUKESHA       CLOUDY    34  34 100 W9        29.83F FOG     WCI  26
$$

INZ001>003-010>013-019-020-172000-
NORTHWEST INDIANA

CITY           SKY/WX    TMP DP  RH WIND       PRES   REMARKS
GARY*          CLOUDY    39  37  93 W12       29.87R
MICHIGAN CITY* NOT AVBL
RENSSELAER*    NOT AVBL
VALPARAISO     CLOUDY    41  39  93 W12       29.87R
$$

LMZ740>746-172000-
SOUTHERN LAKE MICHIGAN

STATION/POSITION TIME  SKY/WX   TEMP WIND        PRES    VSBY
                                AIR  DIR/SP/G
                 (UTC)          (F)  (DEG/KT/KT) (MB)    (MI)
HARRISON CRIB    1840            40  260/ 10/ 12   N/A
BURNHAM HARBOR   1900            39  270/ 11/ 12   N/A
CALUMET HARBOR   1830            39  230/ 10/ 15 1010.6R
BURNS HARBOR     1840            37  250/  9/ 10 1011.9S
MICHIGAN CITY    NOT AVBL
$$

ABBREVIATIONS USED IN REMARKS
   TC - TEMPERATURE IN CELSIUS
  WCI - WIND CHILL INDEX
   HX - HEAT INDEX
  VSB - VISIBILITY
$$



USA.gov is the U.S. government's official web portal to all federal, state and local government web resources and services.